St. Cloud, MN

6:06 AM CST on January 19, 2018 (GMT -0600)
Saint Cloud Regional

Weather History for KSTC - September, 2012

Change the Weather History Date:

Monday, September 17, 2012

  Actual Average Record
Temperature  
Mean Temperature 51 °F 58 °F  
Max Temperature 64 °F 70 °F 92 °F (1955)
Min Temperature 37 °F 46 °F 27 °F (1943)
Degree Days  
Heating Degree Days 14 8  
Month to date heating degree days 52 92  
Since 1 July heating degree days 83 150  
Cooling Degree Days 0 1  
Month to date cooling degree days 48 27  
Year to date cooling degree days 739 456  
Growing Degree Days 2 (Base 50)    
Moisture  
Dew Point 38 °F    
Average Humidity 58    
Maximum Humidity 86    
Minimum Humidity 30    
Precipitation  
Precipitation 0.07 in 0.12 in 1.62 in (1942)
Month to date precipitation 0.16 2.11  
Year to date precipitation 21.65 21.69  
Snow  
Snow 0.00 in 0.00 in 0.00 in ()
Month to date snowfall 0.0 0.0  
Since 1 July snowfall 0.0 0.0  
Since 1 September snowfall 0.0 0.0  
Snow Depth 0.00 in    
Sea Level Pressure  
Sea Level Pressure 30.03 in    
Wind  
Wind Speed 8 mph (NNW)    
Max Wind Speed 22 mph    
Max Gust Speed 30 mph    
Visibility 10 miles    
Events Rain    
T = Trace of Precipitation, MM = Missing Value Source: NWS Daily Summary

Daily Weather History Graph

Daily Weather History Graph

Search for Another Location

Airport or City:

Trip Planner

Search our weather history database for the weather conditions in past years. The results will help you decide how hot, cold, wet, or windy it might be!

Date:

Astronomy

Sep. 17, 2012 Rise Set
Actual Time 6:57 AM CDT 7:22 PM CDT
Civil Twilight 6:28 AM CDT 7:52 PM CDT
Nautical Twilight 5:52 AM CDT 8:27 PM CDT
Astronomical Twilight 5:16 AM CDT 9:03 PM CDT
Moon 8:56 AM CDT (9/17) 7:54 PM CDT (9/17)
Length of Visible Light 13h 24m
Length of Day
12h 24m
Waxing Crescent, 3% of the Moon is Illuminated
Sep 17
Waxing Crescent
Sep 22
First Quarter
Sep 29
Full
Oct 8
Last Quarter
Oct 15
New

Hourly Weather History & Observations

Time (CDT) Temp. Windchill Dew Point Humidity Pressure Visibility Wind Dir Wind Speed Gust Speed Precip Events Conditions
12:53 AM 55.0 °F - 44.1 °F 67% 29.98 in 10.0 mi North 6.9 mph - N/A   Mostly Cloudy
1:53 AM 51.1 °F - 46.9 °F 86% 30.01 in 4.0 mi North 5.8 mph - 0.07 in Rain Rain
2:53 AM 51.1 °F - 46.9 °F 86% 30.01 in 10.0 mi NW 5.8 mph - 0.00 in   Overcast
3:53 AM 50.0 °F - 45.0 °F 83% 30.00 in 10.0 mi NNW 8.1 mph - N/A   Overcast
4:53 AM 50.0 °F - 44.1 °F 80% 30.01 in 10.0 mi NNW 5.8 mph - N/A   Overcast
5:53 AM 50.0 °F - 43.0 °F 77% 30.02 in 10.0 mi NNW 6.9 mph - N/A   Overcast
6:53 AM 48.9 °F - 41.0 °F 74% 30.02 in 10.0 mi NNW 6.9 mph - N/A   Overcast
7:53 AM 48.9 °F - 39.9 °F 71% 30.03 in 10.0 mi NNW 8.1 mph 17.3 mph N/A   Scattered Clouds
8:53 AM 50.0 °F - 39.9 °F 68% 30.04 in 10.0 mi NNW 9.2 mph 17.3 mph N/A   Clear
9:53 AM 54.0 °F - 39.9 °F 59% 30.04 in 10.0 mi North 13.8 mph 18.4 mph N/A   Clear
10:53 AM 54.0 °F - 39.0 °F 57% 30.06 in 10.0 mi NNW 11.5 mph 20.7 mph N/A   Clear
11:53 AM 57.9 °F - 35.1 °F 42% 30.05 in 10.0 mi NNW 13.8 mph 24.2 mph N/A   Clear
12:53 PM 60.1 °F - 33.1 °F 36% 30.03 in 10.0 mi NW 15.0 mph 23.0 mph N/A   Clear
1:53 PM 62.1 °F - 30.9 °F 31% 30.02 in 10.0 mi NW 11.5 mph 19.6 mph N/A   Mostly Cloudy
2:53 PM 59.0 °F - 30.0 °F 33% 30.01 in 10.0 mi NNW 11.5 mph - N/A   Mostly Cloudy
3:53 PM 61.0 °F - 30.0 °F 31% 30.01 in 10.0 mi NNW 11.5 mph 20.7 mph N/A   Mostly Cloudy
4:53 PM 59.0 °F - 28.0 °F 31% 30.00 in 10.0 mi NW 8.1 mph - N/A   Mostly Cloudy
5:53 PM 57.9 °F - 30.0 °F 35% 30.01 in 10.0 mi North 6.9 mph - N/A   Mostly Cloudy
6:53 PM 55.0 °F - 33.1 °F 43% 30.02 in 10.0 mi NNE 5.8 mph - N/A   Mostly Cloudy
7:53 PM 51.1 °F - 34.0 °F 52% 30.03 in 10.0 mi Calm Calm - N/A   Partly Cloudy
8:53 PM 46.9 °F - 39.9 °F 77% 30.07 in 10.0 mi North 10.4 mph - 0.01 in   Overcast
9:53 PM 46.0 °F 42.5 °F 37.9 °F 73% 30.06 in 10.0 mi NE 6.9 mph - N/A   Mostly Cloudy
10:53 PM 41.0 °F - 37.0 °F 86% 30.06 in 10.0 mi Calm Calm - N/A   Clear
11:53 PM 39.9 °F - 36.0 °F 86% 30.06 in 10.0 mi Calm Calm - N/A   Partly Cloudy